This is the latest recevied weather packets stored in our database for station/object KD7AWQ. If no packets are shown the sender has not sent any weather packets the latest 10 day(s).
| Time | Temp. | Humidity | Pressure | Rain* | Wind** | Luminosity | Snow |
|---|---|---|---|---|---|---|---|
| 1777601600 | 21.67° C | 35% | 1177.2 hPa | 0 mm | - | 0 W/m² | - |
| 1777601295 | 21.67° C | 32% | 1176.9 hPa | 0 mm | - | 0 W/m² | - |
| 1777600993 | 22.22° C | 30% | 1177 hPa | 0 mm | - | 1 W/m² | - |
| 1777600385 | 23.33° C | 15% | 1176.9 hPa | 0 mm | - | 2 W/m² | - |
| 1777583998 | 25.56° C | 13% | 1178.4 hPa | 0 mm | - | 1012 W/m² | - |
| 1777583693 | 26.11° C | 13% | 1178.4 hPa | 0 mm | - | 1041 W/m² | - |
| 1777581268 | 25° C | 13% | 1179 hPa | 0 mm | - | 1105 W/m² | - |
| 1777580662 | 25° C | 13% | 1179 hPa | 0 mm | - | 603 W/m² | - |
| 1777580358 | 24.44° C | 14% | 1179 hPa | 0 mm | - | 1138 W/m² | - |
| 1777580055 | 24.44° C | 13% | 1179.4 hPa | 0 mm | - | 238 W/m² | - |
| 1777579751 | 26.67° C | 12% | 1179.3 hPa | 0 mm | - | 1191 W/m² | - |
| 1777579449 | 26.11° C | 12% | 1179.7 hPa | 0 mm | - | 1194 W/m² | - |
| 1777579144 | 25.56° C | 12% | 1179.6 hPa | 0 mm | - | 1186 W/m² | - |
| 1777578843 | 25.56° C | 12% | 1179.7 hPa | 0 mm | - | 1227 W/m² | - |
| 1777578535 | 26.11° C | 12% | 1179.7 hPa | 0 mm | - | 1282 W/m² | - |
| 1777577621 | 24.44° C | 13% | 1180.2 hPa | 0 mm | - | 1344 W/m² | - |
| 1777577319 | 23.89° C | 13% | 1180.3 hPa | 0 mm | - | 678 W/m² | - |
| 1777575500 | 23.89° C | 12% | 1180.5 hPa | 0 mm | - | 1111 W/m² | - |
| 1777574285 | 23.89° C | 13% | 1180.9 hPa | 0 mm | - | 1080 W/m² | - |
| 1777573067 | 23.33° C | 13% | 1181.2 hPa | 0 mm | - | 1054 W/m² | - |
| 1777571851 | 22.78° C | 14% | 1181.5 hPa | 0 mm | - | 1033 W/m² | - |
| 1777571244 | 22.78° C | 14% | 1181.5 hPa | 0 mm | - | 974 W/m² | - |
| 1777570333 | 22.22° C | 13% | 1181.9 hPa | 0 mm | - | 235 W/m² | - |
| 1777568814 | 21.67° C | 14% | 1182 hPa | 0 mm | - | 918 W/m² | - |
| 1777566088 | 21.11° C | 15% | 1182.2 hPa | 0 mm | - | 801 W/m² | - |
* Rain latest hour (hover to see other rain measurements)
** Current wind speed in m/s (hover to see current wind gust speed)